Regional Weather Roundup
Issued by NWS Albany, NY

Home | Current Version | Previous Version | Text Only | Print | Product List | Glossary On
Versions: 1 2 3 4 5 6 7 8 9 10 11 12 13 14 15 16 17 18 19 20 21 22 23 24 25 26 27 28 29 30 31 32 33 34 35 36 37 38 39 40 41 42 43 44 45 46 47 48 49 50
000
ASUS41 KALY 301310
RWRALY

NEW YORK STATE HOURLY WEATHER ROUNDUP
NATIONAL WEATHER SERVICE ALBANY NY
800 AM EST FRI JAN 30 2015

NOTE: "FAIR" INDICATES FEW OR NO CLOUDS BELOW 12,000 FEET WITH NO
SIGNIFICANT WEATHER AND/OR NO OBSTRUCTIONS TO VISIBILITY.

NYZ032-033-038>043-046>054-057>066-NYZ062>081-301400-
EAST


CITY           SKY/WX    TMP DP  RH WIND       PRES   REMARKS
ALBANY         LGT SNOW  28  24  85 S5        29.84S FOG     WCI  23
GLENS FALLS    CLOUDY    27  23  85 SW8       29.82R WCI  19
POUGHKEEPSIE   LGT SNOW  29  26  89 CALM      29.84F FOG
NEWBURGH       LGT SNOW  27  25  93 W9        29.84R FOG     WCI  17
MONTGOMERY     LGT SNOW  26  24  92 SW5       29.83S FOG     WCI  20
ISLIP          LGT SNOW  34  30  86 W6        29.82S FOG     WCI  29
NEW YORK CITY  LGT SNOW  32  26  78 NW7       29.84S WCI  26
CENTRAL PARK   CLOUDY    32  25  75 W7        29.86R WCI  26
$$

NYZ005>009-017-018-044>046-055-056-301400-
CENTRAL


CITY           SKY/WX    TMP DP  RH WIND       PRES   REMARKS
FULTON         FLURRIES  27  20  75 N8        29.93R WCI  19
SYRACUSE       LGT SNOW  23  23 100 NW13      29.91R FOG     WCI  11
ROME           CLOUDY    26  21  81 NW15      29.88R WCI  14
ELMIRA         LGT SNOW  29  22  75 W20G26    29.90R WCI  16
BINGHAMTON     LGT SNOW  26  23  88 NW15G21   29.81R FOG     WCI  14
MONTICELLO     CLOUDY    23  21  93 W5        29.80R VSB 1/2 WCI  17
$$

NYZ026>034-041>043-301400-
NORTH


CITY           SKY/WX    TMP DP  RH WIND       PRES   REMARKS
WATERTOWN      NOT AVBL
FORT DRUM      NOT AVBL
MASSENA        FLURRIES  23  19  85 W12G22    29.90R WCI  12
SARANAC LAKE   LGT SNOW  24  21  88 CALM      29.72R VSB 1
PLATTSBURGH    LGT SNOW  26  25  96 CALM      29.81R FOG
$$

NYZ001>004-010>016-019>021-301400-
WEST


CITY           SKY/WX    TMP DP  RH WIND       PRES   REMARKS
NIAGARA FALLS  LGT SNOW  19  14  81 NW20G30   30.06R BLWGSNOWWCI   3
BUFFALO        LGT SNOW  20  15  81 NW21G29   30.04R WCI   4
DUNKIRK        LGT SNOW  26  23  88 NW12      30.05R FOG     WCI  16
JAMESTOWN      CLOUDY    21  18  86 NW15      29.98R WCI   8
WELLSVILLE     LGT SNOW  23  18  81 NW18G28   29.90R WCI   9
ROCHESTER      LGT SNOW  28  22  78 NW10G23   29.97R WCI  19
PENN YAN       LGT SNOW  27  21  78 NW12G20   29.93R WCI  17
$$

             KEY
       WCI = WIND CHILL INDEX
       VSB = VISIBILITY
       HX  = HEAT INDEX
$$


USA.gov is the U.S. government's official web portal to all federal, state and local government web resources and services.